Dewpoint
1 11 11 12 11 11 9 7 6 1 3 -2 -1 0 -0 0 2 5 11 11 11 10 9 10 9 10 10 11 6 7 4 7 8
7 11 11 11 11 9 8 6 0 1 0 -0 -1 -1 -0 -0 0 4 10 11 11 11 11 10 11 11 6 6 9 6 4 10 7
7 10 9 8 7 6 4 1 1 1 0 -0 -1 -1 -0 -0 0 2 9 11 10 9 9 11 8 6 4 5 10 5 5 5 6
12 13 10 8 5 3 -0 0 1 1 0 -1 -1 -0 -0 0 0 0 5 9 6 3 6 3 2 3 3 3 3 4 5 4 5
10 12 12 7 2 0 -1 0 0 2 1 -1 -1 -1 0 1 1 1 1 2 3 2 2 2 2 3 3 3 3 4 4 4 4
8 9 11 9 -0 -1 0 0 1 3 1 -1 -1 -0 1 2 2 2 2 2 3 3 3 3 3 3 4 4 4 5 5 5 4
9 8 10 9 1 -1 1 -0 3 2 0 -0 0 1 2 3 4 4 4 4 4 3 4 3 3 4 4 4 5 5 5 5 4
11 7 11 10 1 -1 0 -0 2 2 1 0 1 1 2 3 3 4 4 5 5 5 5 4 4 4 5 4 4 5 5 5 5
12 9 6 10 1 -1 -2 -1 3 3 2 2 1 1 2 2 3 3 4 5 5 6 6 6 6 5 5 5 4 5 5 6 6
12 11 6 8 5 -1 -2 -1 2 3 2 2 3 2 2 2 3 3 4 4 5 5 6 7 8 7 6 6 6 5 7 8 8
12 12 8 6 7 2 -2 -1 2 3 4 3 3 4 4 4 4 4 4 4 4 5 6 6 7 8 8 8 7 8 9 9 9
11 11 10 9 4 4 -1 -2 3 4 4 5 5 5 6 6 7 6 6 6 6 6 6 6 7 8 10 10 11 11 11 10 10
11 11 12 10 8 0 -2 -2 1 3 4 5 6 7 8 8 8 7 6 6 6 7 7 7 8 9 9 9 9 9 9 9 10
11 10 11 11 11 5 -3 -2 1 3 4 5 8 8 9 9 8 7 7 7 8 7 7 8 7 7 7 8 8 8 9 9 8
12 11 10 12 12 11 1 -2 1 3 5 7 8 9 9 8 7 7 8 8 8 8 8 8 8 8 8 8 8 8 9 9 8
12 12 11 11 12 11 7 -2 2 3 7 9 9 10 9 8 7 7 9 9 8 8 8 8 8 8 9 9 9 9 9 9 9
12 12 11 10 12 12 10 -1 2 4 7 9 9 9 9 8 8 8 9 9 8 8 8 8 8 8 9 9 9 9 9 9 9
13 13 11 11 11 12 11 4 -0 3 6 8 9 9 10 8 8 9 9 8 8 8 9 8 8 8 8 8 9 8 8 8 8
12 12 12 11 11 11 12 10 -0 3 4 9 10 9 7 8 9 9 9 8 8 9 9 9 8 8 6 7 7 7 6 7 6
10 12 11 10 11 11 11 11 4 1 5 8 9 9 9 8 7 7 8 8 8 9 9 8 9 8 6 6 6 5 4 4 5
Wind_Speed
20 19 18 17 15 13 11 10 10 9 11 11 12 12 12 12 12 14 18 16 15 13 18 14 14 17 16 14 15 14 15 18 18
22 19 18 16 14 11 11 10 10 11 11 11 11 12 12 12 13 16 16 15 14 14 15 15 15 14 14 14 16 13 16 16 17
19 17 17 14 12 12 12 11 12 12 11 11 11 12 11 12 13 14 15 14 14 13 14 14 14 14 15 16 13 14 15 15 16
17 17 15 14 13 13 13 13 11 11 11 12 12 12 11 11 12 13 14 13 13 14 14 15 13 13 15 14 13 13 14 15 15
17 17 16 14 13 14 14 13 11 10 10 11 12 12 11 11 11 12 14 14 13 13 13 13 13 13 13 12 13 12 13 14 15
18 18 17 14 14 15 15 13 12 10 10 12 12 12 11 10 11 12 12 12 11 11 12 12 12 11 11 11 10 11 12 13 14
20 19 18 15 15 16 15 14 13 11 12 13 12 12 11 10 10 10 10 9 9 9 10 10 10 10 9 9 9 10 11 12 13
20 21 21 19 18 19 18 17 15 13 12 12 12 12 11 10 9 8 8 7 7 7 8 7 8 7 7 8 8 9 10 11 10
23 23 24 22 20 21 19 19 16 15 14 13 11 11 10 9 8 7 6 5 5 5 5 5 5 5 5 6 6 7 8 8 8
25 24 25 24 22 22 21 20 19 17 16 15 13 11 11 10 8 7 6 4 3 3 3 2 2 2 3 3 4 5 6 5 6
28 26 26 25 25 23 22 22 20 18 17 15 14 12 11 10 9 7 6 5 4 3 3 2 1 0 1 1 2 3 3 4 5
31 29 29 28 27 26 25 24 23 20 19 16 15 14 12 10 9 8 7 6 5 5 5 4 3 3 4 5 6 6 7 6 5
33 31 31 30 28 28 28 27 27 24 21 19 17 15 13 12 10 8 8 8 7 7 6 5 6 7 7 5 5 4 4 4 3
38 33 33 32 32 30 30 31 29 27 24 21 17 16 15 14 13 11 10 10 9 8 8 7 7 8 8 8 7 4 4 3 5
39 37 35 34 35 34 33 33 32 30 25 22 19 18 17 17 15 14 13 13 12 11 10 10 9 9 9 9 9 7 6 6 7
41 41 37 36 35 36 34 34 34 33 28 23 21 21 20 19 18 17 16 15 15 15 13 12 11 11 11 11 10 9 8 9 8
44 43 39 37 37 37 36 38 38 36 32 28 24 17 22 23 22 21 19 17 17 17 15 14 13 12 12 12 11 11 11 9 9
42 45 41 40 41 39 38 41 42 40 37 33 20 11 12 18 26 25 22 20 19 18 16 17 16 14 13 13 12 11 10 9 10
37 38 41 42 41 42 40 41 43 43 41 37 35 25 13 12 11 26 27 24 22 21 19 18 18 15 14 12 12 11 10 10 10
39 40 43 41 41 43 41 42 45 47 45 43 40 38 31 19 17 12 21 28 26 24 22 20 19 17 15 14 14 12 12 12 12
Wind_Direction
151 153 161 161 159 156 157 145 132 126 121 115 113 107 101 101 101 99 97 93 103 91 108 107 93 92 87 86 74 73 61 64 59
160 162 169 167 166 163 160 152 138 131 126 121 118 110 107 103 105 103 102 104 100 100 93 105 96 86 89 92 77 64 64 67 64
169 171 175 177 174 167 162 151 143 134 131 128 123 116 111 107 105 105 106 107 101 108 103 97 86 83 86 89 80 66 66 67 63
181 184 182 183 177 172 165 154 148 139 135 133 130 124 116 111 106 96 100 107 97 94 95 89 85 80 79 74 75 68 67 64 61
190 188 189 184 182 177 169 160 154 147 141 141 138 130 121 115 108 98 95 96 95 94 91 86 85 81 78 75 71 68 64 60 58
196 195 192 191 187 183 174 168 159 154 151 150 145 137 131 121 110 103 100 98 96 94 91 87 83 81 79 74 71 66 62 58 56
201 200 198 197 194 189 182 175 169 164 161 157 154 149 142 131 118 112 109 103 96 91 89 87 83 80 76 71 69 66 62 60 58
203 202 200 200 198 195 189 185 179 175 172 168 165 161 154 143 133 128 122 113 106 96 89 84 80 78 74 66 62 64 64 62 57
209 209 207 206 203 200 198 193 188 183 179 178 174 171 167 158 153 148 143 135 127 115 103 92 86 77 69 61 59 65 68 60 50
214 214 211 211 208 205 206 202 196 192 190 187 183 182 176 173 170 169 168 167 164 151 131 126 104 79 61 47 40 54 61 48 31
219 219 215 214 214 212 211 212 204 200 198 196 191 188 182 179 179 183 186 194 201 204 197 213 210 250 334 345 339 347 359 347 350
224 221 219 216 215 214 213 213 211 209 206 203 199 197 195 192 193 196 202 208 216 221 223 226 241 271 278 288 289 292 295 308 326
227 224 223 219 216 215 214 213 213 213 213 211 208 209 207 207 211 216 217 219 226 228 227 237 236 248 262 271 280 303 311 312 296
230 226 225 222 217 216 216 214 215 216 215 215 216 215 219 223 225 222 222 224 230 230 239 250 249 256 265 265 273 286 289 275 306
230 231 226 223 221 219 217 216 215 217 219 219 221 224 222 230 228 227 229 233 236 240 246 251 256 266 269 263 266 272 269 280 295
228 232 229 225 224 226 221 217 216 215 215 219 225 225 231 233 232 233 235 239 239 240 245 247 254 262 266 265 266 270 272 277 275
228 232 230 228 225 225 224 219 217 215 215 214 221 227 235 236 236 234 239 241 239 241 245 244 253 260 261 262 264 270 274 270 271
230 231 234 228 228 225 225 222 219 217 214 217 213 212 222 236 238 237 238 239 241 241 244 246 252 259 262 263 263 262 262 257 258
234 230 233 231 230 229 230 226 223 220 219 216 218 224 235 214 229 235 235 236 238 239 244 248 252 261 262 258 254 254 256 253 252
227 228 224 228 231 232 234 224 224 224 222 223 220 223 230 236 237 238 233 234 235 237 242 248 250 261 259 255 252 250 259 258 260
Height
1562 1564 1566 1567 1568 1569 1571 1571 1571 1572 1574 1574 1575 1575 1576 1576 1576 1576 1577 1578 1580 1580 1579 1579 1579 1579 1579 1579 1578 1577 1576 1575 1574
1563 1565 1567 1568 1570 1571 1572 1573 1573 1573 1575 1576 1576 1577 1577 1578 1578 1578 1579 1580 1581 1581 1581 1581 1581 1581 1580 1580 1580 1579 1578 1577 1575
1564 1565 1567 1569 1570 1571 1573 1574 1574 1575 1576 1577 1578 1578 1579 1579 1580 1580 1580 1582 1582 1582 1582 1582 1582 1582 1582 1582 1581 1581 1579 1578 1577
1565 1566 1567 1569 1570 1572 1573 1575 1576 1576 1577 1578 1579 1579 1580 1581 1581 1582 1582 1583 1583 1583 1583 1583 1583 1583 1583 1583 1583 1582 1581 1580 1578
1564 1566 1568 1569 1571 1572 1574 1575 1577 1578 1578 1579 1579 1580 1582 1582 1583 1583 1584 1584 1584 1584 1584 1584 1584 1584 1584 1584 1584 1583 1582 1581 1580
1563 1565 1567 1569 1571 1572 1574 1575 1577 1578 1580 1580 1581 1581 1582 1583 1584 1585 1585 1585 1585 1586 1586 1586 1586 1586 1585 1585 1584 1584 1583 1583 1582
1563 1565 1566 1568 1570 1572 1574 1575 1577 1578 1579 1581 1581 1582 1583 1584 1585 1586 1586 1586 1587 1587 1587 1587 1587 1587 1587 1586 1585 1585 1585 1584 1583
1562 1564 1566 1567 1570 1571 1573 1575 1576 1578 1579 1580 1582 1582 1583 1584 1585 1586 1586 1587 1587 1587 1588 1588 1588 1588 1587 1587 1587 1586 1585 1585 1583
1559 1561 1564 1566 1568 1570 1572 1574 1576 1577 1578 1580 1581 1582 1583 1585 1585 1586 1586 1587 1587 1587 1588 1588 1588 1588 1588 1587 1587 1586 1585 1585 1583
1557 1559 1562 1564 1567 1569 1571 1573 1575 1577 1578 1579 1580 1582 1583 1584 1585 1586 1586 1587 1587 1587 1587 1587 1587 1587 1587 1587 1587 1586 1585 1584 1583
1553 1556 1558 1561 1564 1567 1569 1572 1575 1576 1577 1578 1579 1581 1582 1583 1584 1584 1585 1586 1586 1586 1586 1586 1587 1586 1586 1585 1585 1586 1584 1583 1583
1549 1552 1555 1557 1560 1564 1567 1570 1573 1575 1576 1577 1578 1579 1581 1582 1583 1583 1584 1584 1584 1585 1585 1585 1585 1585 1585 1584 1583 1583 1583 1582 1581
1543 1547 1551 1554 1557 1560 1563 1566 1569 1572 1575 1576 1577 1578 1580 1580 1581 1582 1582 1582 1583 1583 1583 1584 1583 1584 1583 1582 1581 1581 1581 1580 1579
1537 1541 1546 1550 1552 1555 1559 1561 1566 1568 1571 1574 1576 1576 1578 1579 1579 1579 1580 1580 1580 1581 1581 1581 1581 1581 1581 1581 1579 1579 1579 1579 1578
1531 1536 1540 1544 1548 1551 1554 1558 1561 1566 1569 1572 1573 1575 1575 1576 1576 1577 1578 1578 1578 1579 1579 1578 1578 1579 1578 1578 1577 1577 1576 1576 1576
1524 1528 1534 1539 1542 1547 1550 1555 1558 1561 1565 1569 1571 1571 1572 1573 1573 1574 1575 1575 1575 1575 1575 1576 1575 1575 1575 1574 1575 1574 1574 1573 1573
1517 1521 1527 1532 1536 1540 1545 1548 1553 1557 1560 1563 1567 1569 1569 1568 1569 1570 1571 1571 1572 1572 1572 1572 1572 1572 1571 1572 1571 1571 1571 1571 1570
1509 1514 1519 1524 1529 1532 1537 1542 1546 1551 1554 1557 1562 1563 1562 1563 1564 1565 1566 1567 1568 1568 1568 1568 1568 1567 1568 1568 1568 1567 1567 1567 1566
1501 1507 1511 1517 1521 1525 1531 1536 1540 1545 1548 1552 1554 1556 1557 1558 1559 1559 1560 1562 1562 1563 1563 1563 1564 1564 1564 1564 1564 1563 1563 1563 1564
1495 1499 1503 1508 1512 1517 1523 1528 1533 1536 1541 1544 1547 1550 1552 1554 1554 1554 1554 1556 1557 1558 1558 1559 1559 1560 1560 1560 1560 1559 1559 1559 1560